Location: Jihlava
(49.4000°N, 15.5830°E)
Time: 16:37:56
(UTC+02:00)

ISS - Visible Passes

Search period start: 28 September 2023 00:00
Search period end: 08 October 2023 00:00
Orbit: 413 x 421 km, 51.6° (Epoch: 28 September)

Date Brightness Start Highest point End Pass type
(mag) Time Alt. Az. Time Alt. Az. Time Alt. Az.
28 Sep -3.7 20:05:15 10° WNW 20:08:34 68° SSW 20:10:02 30° SE visible
28 Sep -0.6 21:42:46 10° W 21:42:57 11° WSW 21:42:57 11° WSW visible
29 Sep -3.8 19:16:57 10° WNW 19:20:19 89° NNE 19:23:39 10° ESE visible
29 Sep -1.9 20:54:03 10° W 20:56:37 23° SW 20:56:37 23° SW visible
30 Sep -2.5 20:05:31 10° W 20:08:35 34° SSW 20:10:18 20° SSE visible
01 Oct -3.0 19:17:02 10° WNW 19:20:17 50° SSW 19:23:32 10° SE visible
01 Oct -0.9 20:55:38 10° WSW 20:56:24 11° SW 20:56:56 10° SW visible
02 Oct -1.2 20:06:00 10° W 20:08:12 16° SW 20:10:23 10° S visible
03 Oct -1.7 19:17:06 10° W 19:19:52 24° SW 19:22:39 10° SSE visible
05 Oct -0.7 19:17:56 10° WSW 19:19:04 11° SW 19:20:13 10° SSW visible
